• In Netherlands
  • List of Countries
  • For 7 days
  • Water Temperature
  • Satellite Maps
  • Weather Map
  • Weather Widgets
  • user-avatar
    Login

    Hourly Weather Zhlobin

    Today, 24 June, Saturday

    Time Temperature Precipitation Wind Pressure Humidity
    00:00 +14°C° 0 mm 1 mps 742 mmHg 92%
    01:00 +13°C° 0 mm 1 mps 742 mmHg 92%
    02:00 +13°C° 0 mm 1 mps 743 mmHg 92%
    03:00 +13°C° 0 mm 1 mps 743 mmHg 92%
    04:00 +13°C° 0 mm 1 mps 743 mmHg 91%
    05:00 +14°C° 0 mm 1 mps 744 mmHg 90%
    06:00 +15°C° 0 mm 1 mps 744 mmHg 85%
    07:00 +18°C° 0 mm 1 mps 744 mmHg 79%
    08:00 +19°C° 0 mm 1 mps 744 mmHg 74%
    09:00 +20°C° 0.1 mm 1 mps 744 mmHg 67%
    10:00 +21°C° 0.1 mm 2 mps 744 mmHg 60%
    11:00 +23°C° 0.1 mm 2 mps 744 mmHg 54%
    12:00 +23°C° 0.2 mm 2 mps 744 mmHg 58%
    13:00 +22°C° 0.2 mm 3 mps 744 mmHg 61%
    14:00 +22°C° 0.2 mm 3 mps 744 mmHg 65%
    15:00 +21°C° 0.3 mm 3 mps 744 mmHg 73%
    16:00 +20°C° 0.3 mm 3 mps 744 mmHg 81%
    17:00 +19°C° 0.3 mm 3 mps 744 mmHg 89%
    18:00 +18°C° 0.1 mm 3 mps 744 mmHg 91%
    19:00 +18°C° 0.1 mm 3 mps 744 mmHg 93%
    20:00 +17°C° 0.1 mm 3 mps 744 mmHg 96%
    21:00 +16°C° 0 mm 3 mps 745 mmHg 96%
    22:00 +16°C° 0 mm 2 mps 745 mmHg 97%
    23:00 +15°C° 0 mm 2 mps 745 mmHg 97%

    Tomorrow, 25 June, Sunday

    Time Temperature Precipitation Wind Pressure Humidity
    00:00 +15°C° 0 mm 2 mps 745 mmHg 97%
    01:00 +14°C° 0 mm 2 mps 746 mmHg 98%
    02:00 +14°C° 0 mm 2 mps 746 mmHg 98%
    03:00 +14°C° 0 mm 2 mps 746 mmHg 97%
    04:00 +14°C° 0 mm 2 mps 746 mmHg 97%
    05:00 +15°C° 0 mm 2 mps 746 mmHg 97%
    06:00 +16°C° 0 mm 2 mps 746 mmHg 95%
    07:00 +17°C° 0 mm 3 mps 746 mmHg 93%
    08:00 +18°C° 0 mm 3 mps 746 mmHg 91%
    09:00 +19°C° 0.1 mm 3 mps 746 mmHg 83%
    10:00 +21°C° 0.1 mm 3 mps 746 mmHg 76%
    11:00 +22°C° 0.1 mm 3 mps 746 mmHg 69%
    12:00 +24°C° 0.1 mm 3 mps 746 mmHg 66%
    13:00 +25°C° 0.1 mm 3 mps 746 mmHg 63%
    14:00 +25°C° 0.1 mm 4 mps 745 mmHg 60%
    15:00 +25°C° 0.2 mm 3 mps 745 mmHg 64%
    16:00 +25°C° 0.2 mm 3 mps 745 mmHg 67%
    17:00 +25°C° 0.2 mm 2 mps 745 mmHg 71%
    18:00 +23°C° 0.1 mm 2 mps 745 mmHg 76%
    19:00 +21°C° 0.1 mm 2 mps 745 mmHg 81%
    20:00 +21°C° 0.1 mm 1 mps 745 mmHg 87%
    21:00 +19°C° 0 mm 2 mps 744 mmHg 87%
    22:00 +19°C° 0 mm 2 mps 744 mmHg 88%
    23:00 +18°C° 0 mm 2 mps 744 mmHg 89%

    Day after tomorrow, 26 June, Monday

    Time Temperature Precipitation Wind Pressure Humidity
    00:00 +18°C° 0 mm 2 mps 744 mmHg 89%
    01:00 +18°C° 0 mm 2 mps 744 mmHg 89%
    02:00 +18°C° 0 mm 2 mps 744 mmHg 89%
    03:00 +18°C° 0.1 mm 2 mps 744 mmHg 91%
    04:00 +18°C° 0.1 mm 2 mps 744 mmHg 92%
    05:00 +17°C° 0.1 mm 2 mps 743 mmHg 94%
    06:00 +19°C° 0 mm 2 mps 744 mmHg 89%
    07:00 +20°C° 0 mm 2 mps 744 mmHg 84%
    08:00 +21°C° 0 mm 2 mps 744 mmHg 79%
    09:00 +22°C° 0.1 mm 3 mps 744 mmHg 73%
    10:00 +23°C° 0.1 mm 4 mps 744 mmHg 66%
    11:00 +25°C° 0.1 mm 5 mps 744 mmHg 59%
    12:00 +26°C° 0.1 mm 5 mps 744 mmHg 54%
    13:00 +27°C° 0.1 mm 5 mps 744 mmHg 50%
    14:00 +27°C° 0.1 mm 6 mps 744 mmHg 45%
    15:00 +26°C° 0 mm 6 mps 744 mmHg 46%
    16:00 +25°C° 0 mm 5 mps 744 mmHg 46%
    17:00 +25°C° 0 mm 5 mps 744 mmHg 46%
    18:00 +22°C° 0 mm 4 mps 744 mmHg 53%
    19:00 +20°C° 0 mm 3 mps 744 mmHg 60%
    20:00 +19°C° 0 mm 3 mps 745 mmHg 66%
    21:00 +18°C° 0 mm 3 mps 745 mmHg 71%
    22:00 +16°C° 0 mm 2 mps 746 mmHg 75%
    23:00 +15°C° 0 mm 2 mps 746 mmHg 79%

    27 June, Tuesday

    Time Temperature Precipitation Wind Pressure Humidity
    00:00 +15°C° 0 mm 2 mps 747 mmHg 82%
    01:00 +14°C° 0 mm 2 mps 747 mmHg 86%
    02:00 +13°C° 0 mm 2 mps 748 mmHg 89%
    03:00 +13°C° 0 mm 2 mps 748 mmHg 88%
    04:00 +13°C° 0 mm 2 mps 748 mmHg 87%
    05:00 +13°C° 0 mm 2 mps 748 mmHg 86%
    06:00 +15°C° 0 mm 2 mps 749 mmHg 76%
    07:00 +17°C° 0 mm 3 mps 749 mmHg 65%
    08:00 +19°C° 0 mm 3 mps 749 mmHg 54%
    09:00 +20°C° 0 mm 4 mps 749 mmHg 50%
    10:00 +21°C° 0 mm 4 mps 749 mmHg 45%
    11:00 +23°C° 0 mm 4 mps 749 mmHg 41%
    12:00 +23°C° 0 mm 4 mps 749 mmHg 39%
    13:00 +25°C° 0 mm 4 mps 749 mmHg 36%
    14:00 +25°C° 0 mm 4 mps 749 mmHg 34%
    15:00 +25°C° 0 mm 4 mps 748 mmHg 36%
    16:00 +25°C° 0 mm 4 mps 748 mmHg 38%
    17:00 +25°C° 0 mm 3 mps 748 mmHg 39%
    18:00 +22°C° 0 mm 3 mps 748 mmHg 49%
    19:00 +20°C° 0 mm 2 mps 749 mmHg 59%
    20:00 +18°C° 0 mm 2 mps 749 mmHg 69%
    21:00 +18°C° 0 mm 1 mps 749 mmHg 71%
    22:00 +16°C° 0 mm 1 mps 749 mmHg 73%
    23:00 +15°C° 0 mm 1 mps 749 mmHg 75%

    28 June, Wednesday

    Time Temperature Precipitation Wind Pressure Humidity
    00:00 +14°C° 0 mm 1 mps 749 mmHg 78%
    01:00 +14°C° 0 mm 1 mps 749 mmHg 82%
    02:00 +13°C° 0 mm 1 mps 749 mmHg 85%
    03:00 +14°C° 0 mm 1 mps 750 mmHg 84%
    04:00 +13°C° 0 mm 0 mps 750 mmHg 83%
    05:00 +14°C° 0 mm 0 mps 750 mmHg 82%
    06:00 +18°C° 0 mm 1 mps 750 mmHg 72%
    07:00 +21°C° 0 mm 1 mps 750 mmHg 63%
    08:00 +23°C° 0 mm 1 mps 750 mmHg 53%
    09:00 +25°C° 0 mm 2 mps 750 mmHg 48%
    10:00 +26°C° 0 mm 2 mps 750 mmHg 43%
    11:00 +28°C° 0 mm 2 mps 750 mmHg 37%
    12:00 +29°C° 0 mm 2 mps 749 mmHg 36%
    13:00 +29°C° 0 mm 2 mps 749 mmHg 34%
    14:00 +30°C° 0 mm 2 mps 748 mmHg 32%
    15:00 +30°C° 0 mm 2 mps 748 mmHg 35%
    16:00 +30°C° 0 mm 2 mps 748 mmHg 38%
    17:00 +30°C° 0 mm 2 mps 747 mmHg 40%
    18:00 +28°C° 0 mm 2 mps 747 mmHg 50%
    19:00 +26°C° 0 mm 2 mps 747 mmHg 59%
    20:00 +23°C° 0 mm 2 mps 747 mmHg 69%
    21:00 +23°C° 0 mm 2 mps 747 mmHg 72%
    22:00 +21°C° 0 mm 2 mps 747 mmHg 76%
    23:00 +21°C° 0 mm 2 mps 747 mmHg 80%

    29 June, Thursday

    Time Temperature Precipitation Wind Pressure Humidity
    00:00 +20°C° 0.2 mm 2 mps 747 mmHg 83%
    01:00 +20°C° 0.2 mm 2 mps 747 mmHg 87%
    02:00 +20°C° 0.2 mm 2 mps 747 mmHg 91%
    03:00 +20°C° 0.1 mm 3 mps 747 mmHg 90%
    04:00 +20°C° 0.1 mm 3 mps 746 mmHg 89%
    05:00 +20°C° 0.1 mm 3 mps 746 mmHg 89%
    06:00 +22°C° 0 mm 3 mps 746 mmHg 82%
    07:00 +23°C° 0 mm 4 mps 746 mmHg 74%
    08:00 +26°C° 0 mm 4 mps 746 mmHg 67%
    09:00 +28°C° 0 mm 4 mps 746 mmHg 60%
    10:00 +30°C° 0 mm 5 mps 746 mmHg 52%
    11:00 +33°C° 0 mm 5 mps 746 mmHg 45%
    12:00 +34°C° 0 mm 5 mps 745 mmHg 43%
    13:00 +35°C° 0 mm 5 mps 745 mmHg 41%
    14:00 +35°C° 0 mm 5 mps 744 mmHg 38%
    15:00 +35°C° 0 mm 4 mps 744 mmHg 40%
    16:00 +35°C° 0 mm 4 mps 744 mmHg 41%
    17:00 +35°C° 0 mm 3 mps 743 mmHg 42%
    18:00 +33°C° 0 mm 3 mps 743 mmHg 50%
    19:00 +30°C° 0 mm 3 mps 743 mmHg 58%
    20:00 +28°C° 0 mm 3 mps 743 mmHg 65%
    21:00 +27°C° 0.4 mm 3 mps 743 mmHg 70%
    22:00 +26°C° 0.4 mm 3 mps 743 mmHg 75%
    23:00 +25°C° 0.4 mm 3 mps 743 mmHg 80%
    Show more